Change the Weather History Date:

Tuesday, March 5, 2013

  Actual Average Record
Temperature  
Mean Temperature 32 °F 34 °F  
Max Temperature 43 °F 42 °F 77 °F (1983)
Min Temperature 20 °F 25 °F 5 °F (1926)
Degree Days  
Heating Degree Days 33 31  
Month to date heating degree days 189 160  
Since 1 July heating degree days 4450 4704  
Cooling Degree Days 0 0  
Month to date cooling degree days 0 0  
Year to date cooling degree days 0 0  
Moisture  
Dew Point 19 °F    
Average Humidity 60    
Maximum Humidity 81    
Minimum Humidity 39    
Precipitation  
Precipitation 0.00 in 0.09 in 0.89 in (2011)
Month to date precipitation 0.12 0.43  
Year to date precipitation 4.31 5.35  
Snow  
Snow 0.00 in 0.30 in - ()
Month to date snowfall 2.0 1.7  
Since 1 July snowfall 38.4 38.2  
Snow Depth 0.00 in    
Sea Level Pressure  
Sea Level Pressure 29.91 in    
Wind  
Wind Speed 11 mph (East)    
Max Wind Speed 21 mph    
Max Gust Speed 26 mph    
Visibility 9 miles    
Events      
T = Trace of Precipitation, MM = Missing Value Source: NWS Daily Summary

Daily Weather History Graph

Daily Weather History Graph

Search for Another Location

Airport or City:

Trip Planner

Search our weather history database for the weather conditions in past years. The results will help you decide how hot, cold, wet, or windy it might be!

Date:

Astronomy

Mar. 05, 2013 Rise Set
Actual Time 6:53 AM EST 6:21 PM EST
Civil Twilight 6:25 AM EST 6:49 PM EST
Nautical Twilight 5:54 AM EST 7:20 PM EST
Astronomical Twilight 5:22 AM EST 7:52 PM EST
Moon 2:05 AM EST (3/5) 11:57 AM EST (3/5)
Length of Visible Light 12h 23m
Length of Day
11h 28m
Last Quarter, 41% of the Moon is Illuminated
Mar 5
Last Quarter
Mar 11
New
Mar 19
First Quarter
Mar 27
Full
Apr 3
Last Quarter

Hourly Weather History & Observations

Time (EST) Temp. Windchill Dew Point Humidity Pressure Visibility Wind Dir Wind Speed Gust Speed Precip Events Conditions
12:51 AM 24.1 °F 19.7 °F 16.0 °F 71% 30.12 in 9.0 mi NE 3.5 mph - N/A   Mostly Cloudy
2:51 AM 21.9 °F 17.2 °F 15.1 °F 75% 30.11 in 8.0 mi NE 3.5 mph - N/A   Scattered Clouds
3:51 AM 21.9 °F 13.4 °F 15.1 °F 75% 30.08 in 8.0 mi ENE 6.9 mph - N/A   Clear
4:51 AM 23.0 °F 14.7 °F 15.1 °F 72% 30.08 in 9.0 mi East 6.9 mph - N/A   Clear
5:51 AM 21.9 °F 13.4 °F 15.1 °F 75% 30.08 in 8.0 mi East 6.9 mph - N/A   Clear
6:51 AM 21.0 °F 12.4 °F 15.1 °F 78% 30.07 in 7.0 mi East 6.9 mph - N/A   Clear
7:51 AM 23.0 °F 12.4 °F 17.1 °F 78% 30.06 in 7.0 mi ESE 10.4 mph - N/A   Partly Cloudy
8:51 AM 26.6 °F 17.5 °F 19.4 °F 74% 30.01 in 7.0 mi ESE 9.2 mph - N/A   Partly Cloudy
9:51 AM 28.0 °F 19.3 °F 19.9 °F 72% 30.05 in 7.0 mi SE 9.2 mph - N/A   Scattered Clouds
10:51 AM 32.0 °F 27.5 °F 21.0 °F 64% 30.02 in 7.0 mi SE 4.6 mph - N/A   Mostly Cloudy
11:51 AM 36.0 °F 28.0 °F 21.0 °F 55% 29.99 in 8.0 mi East 11.5 mph - N/A   Mostly Cloudy
12:51 PM 37.9 °F 30.9 °F 24.1 °F 57% 29.96 in 8.0 mi East 10.4 mph - N/A   Mostly Cloudy
1:51 PM 39.0 °F 31.4 °F 21.0 °F 49% 29.90 in 9.0 mi East 12.7 mph - N/A   Mostly Cloudy
2:51 PM 41.0 °F 33.9 °F 23.0 °F 49% 29.86 in 10.0 mi ENE 12.7 mph - N/A   Mostly Cloudy
3:51 PM 42.1 °F 35.7 °F 19.0 °F 40% 29.83 in 10.0 mi East 11.5 mph - N/A   Mostly Cloudy
4:51 PM 39.9 °F 31.8 °F 18.0 °F 41% 29.81 in 10.0 mi East 15.0 mph 20.7 mph N/A   Mostly Cloudy
5:51 PM 39.0 °F 31.4 °F 19.0 °F 45% 29.77 in 10.0 mi East 12.7 mph - N/A   Overcast
6:51 PM 39.0 °F 31.4 °F 17.1 °F 41% 29.77 in 10.0 mi East 12.7 mph - N/A   Overcast
7:51 PM 37.9 °F 29.2 °F 19.0 °F 47% 29.72 in 10.0 mi East 15.0 mph - N/A   Overcast
8:51 PM 37.9 °F 27.9 °F 21.0 °F 51% 29.68 in 10.0 mi East 19.6 mph - N/A   Overcast
9:51 PM 37.0 °F 26.7 °F 21.0 °F 52% 29.66 in 10.0 mi East 19.6 mph 24.2 mph N/A   Overcast
10:51 PM 37.0 °F 27.0 °F 21.9 °F 54% 29.66 in 10.0 mi East 18.4 mph 26.5 mph N/A   Overcast
11:51 PM 37.0 °F 27.7 °F 21.9 °F 54% 29.65 in 10.0 mi East 16.1 mph 24.2 mph N/A   Overcast